Weather History for KSPW - November, 2012

Change the Weather History Date:

Thursday, November 29, 2012

  Actual Average Record
Temperature  
Mean Temperature 32 °F -  
Max Temperature 46 °F 33 °F 63 °F (1998)
Min Temperature 18 °F 17 °F -5 °F (1976)
Degree Days  
Heating Degree Days 33    
Moisture  
Dew Point 23 °F    
Average Humidity 71    
Maximum Humidity 88    
Minimum Humidity 50    
Precipitation  
Precipitation 0.00 in - - ()
Sea Level Pressure  
Sea Level Pressure 30.04 in    
Wind  
Wind Speed 4 mph (ENE)    
Max Wind Speed 12 mph    
Max Gust Speed -    
Visibility 9 miles    
Events      
Averages and records for this station are not official NWS values.
T = Trace of Precipitation, MM = Missing Value Source: NWS Daily Summary

Daily Weather History Graph

Daily Weather History Graph

Search for Another Location

Airport or City:

Trip Planner

Search our weather history database for the weather conditions in past years. The results will help you decide how hot, cold, wet, or windy it might be!

Date:

Astronomy

Nov. 29, 2012 Rise Set
Actual Time 7:31 AM CST 4:47 PM CST
Civil Twilight 6:59 AM CST 5:18 PM CST
Nautical Twilight 6:24 AM CST 5:54 PM CST
Astronomical Twilight 5:49 AM CST 6:28 PM CST
Moon 5:50 PM CST (11/29) 8:18 AM CST (11/29)
Length of Visible Light 10h 19m
Length of Day
9h 16m
Full, 99% of the Moon is Illuminated
Nov 29
Full
Dec 6
Last Quarter
Dec 13
New
Dec 19
First Quarter
Dec 28
Full

Hourly Weather History & Observations

Time (CST) Temp. Windchill Dew Point Humidity Pressure Visibility Wind Dir Wind Speed Gust Speed Precip Events Conditions
12:53 AM 28.9 °F 22.8 °F 21.9 °F 75% 30.07 in 10.0 mi South 5.8 mph - N/A   Clear
1:53 AM 28.0 °F 22.8 °F 21.9 °F 78% 30.06 in 10.0 mi SSW 4.6 mph - N/A   Clear
2:53 AM 24.1 °F 19.7 °F 19.9 °F 84% 30.06 in 10.0 mi South 3.5 mph - N/A   Clear
3:53 AM 21.0 °F - 18.0 °F 88% 30.06 in 10.0 mi Calm Calm - N/A   Clear
4:53 AM 19.0 °F 13.9 °F 16.0 °F 88% 30.07 in 9.0 mi SE 3.5 mph - N/A   Clear
5:53 AM 19.0 °F - 15.1 °F 85% 30.06 in 9.0 mi Calm Calm - N/A   Clear
6:53 AM 18.0 °F - 14.0 °F 84% 30.07 in 8.0 mi Calm Calm - N/A   Clear
7:53 AM 18.0 °F 12.7 °F 14.0 °F 84% 30.06 in 7.0 mi NE 3.5 mph - N/A   Clear
8:53 AM 26.1 °F 21.9 °F 21.0 °F 81% 30.06 in 6.0 mi NE 3.5 mph - N/A   Haze
10:53 AM 39.9 °F 35.8 °F 28.0 °F 63% 30.06 in 10.0 mi NE 5.8 mph - N/A   Clear
11:53 AM 42.1 °F 40.2 °F 28.0 °F 58% 30.04 in 10.0 mi East 3.5 mph - N/A   Clear
12:53 PM 45.0 °F - 28.0 °F 52% 30.01 in 10.0 mi Calm Calm - N/A   Clear
1:53 PM 46.9 °F - 28.9 °F 50% 29.99 in 10.0 mi ENE 3.5 mph - N/A   Clear
2:53 PM 46.0 °F 43.1 °F 28.0 °F 50% 29.99 in 10.0 mi ENE 5.8 mph - N/A   Clear
3:53 PM 46.0 °F 42.5 °F 28.0 °F 50% 30.00 in 10.0 mi NE 6.9 mph - N/A   Clear
4:53 PM 37.9 °F 32.1 °F 26.1 °F 62% 30.00 in 9.0 mi East 8.1 mph - N/A   Clear
5:53 PM 32.0 °F 25.6 °F 23.0 °F 69% 30.02 in 10.0 mi NE 6.9 mph - N/A   Clear
6:53 PM 34.0 °F 27.2 °F 26.1 °F 73% 30.03 in 10.0 mi ENE 8.1 mph - N/A   Clear
7:53 PM 36.0 °F 28.0 °F 27.0 °F 70% 30.03 in 10.0 mi ENE 11.5 mph - N/A   Clear
8:53 PM 35.1 °F 27.9 °F 27.0 °F 72% 30.01 in 10.0 mi East 9.2 mph - N/A   Clear
9:53 PM 34.0 °F 28.8 °F 26.1 °F 73% 30.02 in 10.0 mi NNE 5.8 mph - N/A   Partly Cloudy
10:53 PM 30.0 °F 22.4 °F 24.1 °F 79% 30.01 in 9.0 mi ENE 8.1 mph - N/A   Clear